| time (UTC) | temp C | wind direction | speed KPH | gust KPH | rain 1hr cm | rain 24hr cm | rain mn cm | humidity % | barometer mb |
| 20260504004534 | 12 | 229 | 0.0 | 1.6 | 0.00 | 0.00 | 0.00 | 38 | 1012.1 |
| 20260504003029 | 12 | 153 | 0.0 | 1.6 | 0.00 | 0.00 | 0.00 | 37 | 1011.9 |
| 20260504001557 | 13 | 211 | 0.0 | 3.2 | 0.00 | 0.00 | 0.00 | 35 | 1011.7 |
| 20260504000316 | 14 | 234 | 0.0 | 3.2 | 0.00 | 0.00 | 0.00 | 33 | 1011.4 |
| 20260504000001 | 13 | 246 | 0.0 | 4.8 | 0.00 | 0.00 | 0.00 | 33 | 1011.5 |
| 20260503234503 | 14 | 258 | 0.0 | 6.4 | 0.00 | 0.00 | 0.00 | 32 | 1011.4 |
| 20260503233002 | 15 | 146 | 0.0 | 9.7 | 0.00 | 0.00 | 0.00 | 31 | 1011.1 |
| 20260503231513 | 16 | 224 | 0.0 | 6.4 | 0.00 | 0.00 | 0.00 | 28 | 1011.1 |
| 20260503230031 | 16 | 252 | 1.6 | 16.1 | 0.00 | 0.00 | 0.00 | 28 | 1010.9 |
| 20260503224553 | 16 | 336 | 4.8 | 14.5 | 0.00 | 0.00 | 0.00 | 27 | 1010.9 |
| 20260503223002 | 16 | 347 | 3.2 | 16.1 | 0.00 | 0.00 | 0.00 | 26 | 1010.8 |
| 20260503221520 | 16 | 25 | 3.2 | 19.3 | 0.00 | 0.00 | 0.00 | 27 | 1010.7 |
| 20260503220304 | 16 | 345 | 11.3 | 20.9 | 0.00 | 0.00 | 0.00 | 26 | 1010.8 |
| 20260503220021 | 16 | 324 | 6.4 | 20.9 | 0.00 | 0.00 | 0.00 | 26 | 1010.8 |
| 20260503214541 | 16 | 284 | 4.8 | 17.7 | 0.00 | 0.00 | 0.00 | 27 | 1010.8 |
| 20260503213001 | 16 | 238 | 6.4 | 20.9 | 0.00 | 0.00 | 0.00 | 26 | 1010.7 |
| 20260503211508 | 16 | 331 | 6.4 | 25.7 | 0.00 | 0.00 | 0.00 | 26 | 1010.8 |
| 20260503210025 | 15 | 319 | 4.8 | 25.7 | 0.00 | 0.00 | 0.00 | 28 | 1010.8 |
| 20260503204555 | 16 | 246 | 6.4 | 19.3 | 0.00 | 0.00 | 0.00 | 27 | 1010.6 |
| 20260503203003 | 15 | 248 | 4.8 | 32.2 | 0.00 | 0.00 | 0.00 | 28 | 1010.8 |
| 20260503201525 | 15 | 317 | 8.0 | 19.3 | 0.00 | 0.00 | 0.00 | 29 | 1010.8 |
| 20260503200318 | 15 | 292 | 8.0 | 20.9 | 0.00 | 0.00 | 0.00 | 27 | 1011.0 |
| 20260503200033 | 15 | 284 | 4.8 | 20.9 | 0.00 | 0.00 | 0.00 | 29 | 1011.1 |
| 20260503194551 | 15 | 255 | 9.7 | 25.7 | 0.00 | 0.00 | 0.00 | 28 | 1011.1 |
| 20260503193028 | 15 | 254 | 8.0 | 20.9 | 0.00 | 0.00 | 0.00 | 29 | 1011.3 |
| 20260503191528 | 15 | 303 | 6.4 | 24.1 | 0.00 | 0.00 | 0.00 | 30 | 1011.4 |
| 20260503190052 | 14 | 36 | 8.0 | 29.0 | 0.00 | 0.00 | 0.00 | 31 | 1011.3 |
| 20260503184607 | 13 | 287 | 6.4 | 17.7 | 0.00 | 0.00 | 0.00 | 34 | 1011.7 |
| 20260503183005 | 13 | 15 | 8.0 | 24.1 | 0.00 | 0.00 | 0.00 | 33 | 1011.8 |
| 20260503181515 | 13 | 262 | 6.4 | 19.3 | 0.00 | 0.00 | 0.00 | 36 | 1011.9 |
| 20260503180316 | 13 | 358 | 3.2 | 19.3 | 0.00 | 0.00 | 0.00 | 37 | 1011.9 |
| 20260503180021 | 12 | 28 | 4.8 | 19.3 | 0.00 | 0.00 | 0.00 | 38 | 1012.1 |
| 20260503174539 | 12 | 32 | 6.4 | 22.5 | 0.00 | 0.00 | 0.00 | 38 | 1012.0 |
| 20260503173046 | 12 | 270 | 3.2 | 27.4 | 0.00 | 0.00 | 0.00 | 39 | 1012.1 |
| 20260503171601 | 12 | 254 | 8.0 | 20.9 | 0.00 | 0.00 | 0.00 | 37 | 1012.2 |
| 20260503140302 | 11 | 289 | 4.8 | 14.5 | 0.00 | 0.00 | 0.00 | 45 | 1012.7 |
| 20260503081542 | 8 | 188 | 3.2 | 11.3 | 0.00 | 0.00 | 0.00 | 51 | 1010.7 |
| 20260503080310 | 8 | 294 | 3.2 | 8.0 | 0.00 | 0.00 | 0.00 | 51 | 1010.7 |
| 20260503071531 | 8 | 309 | 1.6 | 9.7 | 0.00 | 0.00 | 0.00 | 48 | 1010.7 |
| 20260503060309 | 10 | 318 | 4.8 | 11.3 | 0.00 | 0.00 | 0.00 | 44 | 1010.8 |
| 20260503054549 | 10 | 18 | 1.6 | 11.3 | 0.00 | 0.00 | 0.00 | 43 | 1010.8 |
| 20260503053008 | 10 | 355 | 6.4 | 17.7 | 0.00 | 0.00 | 0.00 | 41 | 1010.9 |
| 20260503051518 | 10 | 209 | 4.8 | 14.5 | 0.00 | 0.00 | 0.00 | 41 | 1011.3 |
| 20260503050025 | 10 | 341 | 3.2 | 14.5 | 0.00 | 0.00 | 0.00 | 42 | 1011.3 |
| 20260503044544 | 11 | 356 | 4.8 | 20.9 | 0.00 | 0.00 | 0.00 | 41 | 1011.4 |
| 20260503043040 | 11 | 3 | 4.8 | 16.1 | 0.00 | 0.00 | 0.00 | 42 | 1011.3 |
| 20260503041551 | 11 | 77 | 3.2 | 11.3 | 0.00 | 0.00 | 0.00 | 41 | 1011.4 |
| 20260503040305 | 11 | 334 | 3.2 | 11.3 | 0.00 | 0.00 | 0.00 | 41 | 1011.5 |
| 20260503040104 | 11 | 8 | 3.2 | 11.3 | 0.00 | 0.00 | 0.00 | 41 | 1011.5 |
| 20260503034518 | 11 | 281 | 3.2 | 16.1 | 0.00 | 0.00 | 0.00 | 41 | 1011.4 |
| 20260503033044 | 11 | 23 | 3.2 | 9.7 | 0.00 | 0.00 | 0.00 | 40 | 1011.3 |
| 20260503031559 | 11 | 307 | 3.2 | 14.5 | 0.00 | 0.00 | 0.00 | 40 | 1011.3 |
| 20260503030018 | 12 | 20 | 3.2 | 19.3 | 0.00 | 0.00 | 0.00 | 38 | 1011.4 |
| 20260503024533 | 12 | 346 | 3.2 | 12.9 | 0.00 | 0.00 | 0.00 | 39 | 1011.4 |
| 20260503023048 | 12 | 337 | 1.6 | 11.3 | 0.00 | 0.00 | 0.00 | 38 | 1011.3 |
| 20260503021513 | 12 | 69 | 1.6 | 9.7 | 0.00 | 0.00 | 0.00 | 39 | 1011.3 |
| 20260503020331 | 12 | 11 | 1.6 | 6.4 | 0.00 | 0.00 | 0.00 | 38 | 1011.4 |
| 20260503020058 | 12 | 316 | 0.0 | 9.7 | 0.00 | 0.00 | 0.00 | 38 | 1011.4 |
| 20260503014505 | 12 | 38 | 3.2 | 9.7 | 0.00 | 0.00 | 0.00 | 38 | 1011.3 |
| 20260503013026 | 12 | 45 | 1.6 | 12.9 | 0.00 | 0.00 | 0.00 | 37 | 1011.5 |
| 20260503011551 | 12 | 209 | 1.6 | 14.5 | 0.00 | 0.00 | 0.00 | 37 | 1011.3 |
| 20260503010051 | 13 | 290 | 3.2 | 12.9 | 0.00 | 0.00 | 0.00 | 37 | 1011.1 |